Simultaneous Nadir Overpasses (SNOs) Predictions

Prediction of SNOs between METOP-A and TERRA Satellite Orbit:

Table of predicted SNOs for the next 14.0 days since TLE Epoch: 8/4/2018
Index Date (METOP-A) Time (METOP-A) Lat,Lon (METOP-A) SZA (METOP-A ) Date (TERRA) Time (TERRA) Lat,Lon (TERRA) SZA (TERRA ) Distance(km) Time Diff (sec)
1 08/04/2018 15:33:03 -81.42, 176.16 112.79 08/04/2018 15:33:39 -81.42, 176.19 112.77 0.57 36
2 08/04/2018 16:23:43 81.42, -16.27 67.25 08/04/2018 16:23:06 81.41, -16.44 67.21 3.06 37
3 08/07/2018 11:07:20 -81.42,-117.56 112.03 08/07/2018 11:07:54 -81.42,-117.48 112.01 1.32 34
4 08/07/2018 11:57:59 81.42, 50.37 68.05 08/07/2018 11:57:20 81.42, 50.26 68.02 1.70 39
5 08/10/2018 06:41:37 -81.42, -51.29 111.24 08/10/2018 06:42:09 -81.42, -51.13 111.21 2.67 32
6 08/10/2018 07:32:16 81.42, 116.59 68.84 08/10/2018 07:31:35 81.42, 116.59 68.82 0.28 41
7 08/13/2018 02:15:52 -81.42, 15.37 110.37 08/13/2018 02:16:23 -81.41, 15.23 110.38 2.56 31
8 08/13/2018 03:06:32 81.42,-177.19 69.66 08/13/2018 03:05:49 81.42,-177.06 69.65 2.31 43
9 08/15/2018 21:50:08 -81.42, 82.02 109.46 08/15/2018 21:50:37 -81.43, 81.99 109.45 0.70 29




NCC Satellite Simultaneous Nadir Overpasses (SNOs) Prediction Service
